| time (UTC) | temp F | wind direction | speed MPH | gust MPH | rain 1hr in | rain 24hr in | rain mn in | humidity % | barometer mb |
| 20260509034516 | 80 | 299 | 1.0 | 2.0 | 0.00 | 0.00 | 0.00 | 74 | 1014.5 |
| 20260509033515 | 80 | 298 | 1.0 | 4.0 | 0.00 | 0.00 | 0.00 | 73 | 1014.5 |
| 20260509032516 | 80 | 281 | 1.0 | 4.0 | 0.00 | 0.00 | 0.00 | 72 | 1014.4 |
| 20260509031515 | 81 | 279 | 2.0 | 4.0 | 0.00 | 0.00 | 0.00 | 70 | 1014.5 |
| 20260509030515 | 82 | 320 | 3.0 | 7.0 | 0.00 | 0.00 | 0.00 | 69 | 1014.5 |
| 20260509025515 | 82 | 319 | 2.0 | 6.0 | 0.00 | 0.00 | 0.00 | 68 | 1014.4 |
| 20260509024515 | 83 | 310 | 3.0 | 9.0 | 0.00 | 0.00 | 0.00 | 66 | 1014.5 |
| 20260509023515 | 83 | 333 | 4.0 | 8.0 | 0.00 | 0.00 | 0.00 | 64 | 1014.3 |
| 20260509022515 | 84 | 355 | 3.0 | 9.0 | 0.00 | 0.00 | 0.00 | 64 | 1014.3 |
| 20260509021513 | 84 | 347 | 4.0 | 9.0 | 0.00 | 0.00 | 0.00 | 62 | 1014.0 |
| 20260509021010 | 85 | 333 | 4.0 | 11.0 | 0.00 | 0.00 | 0.00 | 63 | 1013.9 |
| 20260509015513 | 85 | 323 | 4.0 | 8.0 | 0.00 | 0.00 | 0.00 | 63 | 1013.9 |
| 20260509014515 | 85 | 322 | 3.0 | 8.0 | 0.00 | 0.00 | 0.00 | 63 | 1013.8 |
| 20260509013506 | 86 | 301 | 4.0 | 9.0 | 0.00 | 0.00 | 0.00 | 62 | 1013.7 |
| 20260509012506 | 86 | 289 | 2.0 | 5.0 | 0.00 | 0.00 | 0.00 | 68 | 1013.6 |
| 20260509011505 | 86 | 225 | 3.0 | 9.0 | 0.00 | 0.00 | 0.00 | 67 | 1013.4 |
| 20260509010506 | 86 | 180 | 5.0 | 11.0 | 0.00 | 0.00 | 0.00 | 67 | 1013.2 |
| 20260509005502 | 86 | 170 | 7.0 | 15.0 | 0.00 | 0.00 | 0.00 | 67 | 1012.9 |
| 20260509004503 | 86 | 136 | 5.0 | 10.0 | 0.00 | 0.00 | 0.00 | 68 | 1012.7 |
| 20260509003939 | 86 | 146 | 5.0 | 11.0 | 0.00 | 0.00 | 0.00 | 67 | 1012.8 |
| 20260509002504 | 87 | 121 | 4.0 | 8.0 | 0.00 | 0.00 | 0.00 | 66 | 1012.4 |
| 20260509001504 | 87 | 131 | 4.0 | 10.0 | 0.00 | 0.00 | 0.00 | 65 | 1012.2 |
| 20260509000458 | 88 | 179 | 4.0 | 11.0 | 0.00 | 0.00 | 0.00 | 62 | 1012.1 |
| 20260508235459 | 90 | 123 | 2.0 | 11.0 | 0.00 | 0.00 | 0.00 | 56 | 1011.8 |
| 20260508234459 | 91 | 94 | 1.0 | 4.0 | 0.00 | 0.00 | 0.00 | 50 | 1011.5 |
| 20260508233455 | 91 | 121 | 2.0 | 8.0 | 0.00 | 0.00 | 0.00 | 48 | 1011.3 |
| 20260508232452 | 92 | 116 | 2.0 | 6.0 | 0.00 | 0.00 | 0.00 | 48 | 1011.2 |
| 20260508231453 | 92 | 113 | 2.0 | 7.0 | 0.00 | 0.00 | 0.00 | 47 | 1011.2 |
| 20260508230926 | 92 | 108 | 3.0 | 8.0 | 0.00 | 0.00 | 0.00 | 48 | 1011.0 |
| 20260508225455 | 92 | 131 | 3.0 | 8.0 | 0.00 | 0.00 | 0.00 | 47 | 1011.0 |
| 20260508224931 | 93 | 158 | 4.0 | 9.0 | 0.00 | 0.00 | 0.00 | 48 | 1010.9 |
| 20260508223452 | 93 | 99 | 5.0 | 10.0 | 0.00 | 0.00 | 0.00 | 47 | 1010.9 |
| 20260508222928 | 93 | 155 | 6.0 | 13.0 | 0.00 | 0.00 | 0.00 | 46 | 1010.8 |
| 20260508221454 | 94 | 155 | 5.0 | 11.0 | 0.00 | 0.00 | 0.00 | 47 | 1010.7 |
| 20260508220451 | 94 | 107 | 6.0 | 12.0 | 0.00 | 0.00 | 0.00 | 46 | 1010.7 |
| 20260508215451 | 94 | 148 | 4.0 | 9.0 | 0.00 | 0.00 | 0.00 | 47 | 1010.7 |
| 20260508214451 | 94 | 131 | 4.0 | 11.0 | 0.00 | 0.00 | 0.00 | 46 | 1010.7 |
| 20260508213928 | 96 | 131 | 6.0 | 13.0 | 0.00 | 0.00 | 0.00 | 43 | 1010.7 |
| 20260508212450 | 96 | 29 | 3.0 | 10.0 | 0.00 | 0.00 | 0.00 | 47 | 1010.8 |
| 20260508212422 | 95 | 115 | 4.0 | 11.0 | 0.00 | 0.00 | 0.00 | 47 | 1010.8 |
| 20260508210450 | 95 | 67 | 2.0 | 6.0 | 0.00 | 0.00 | 0.00 | 47 | 1010.8 |
| 20260508205451 | 95 | 281 | 2.0 | 4.0 | 0.00 | 0.00 | 0.00 | 44 | 1011.0 |
| 20260508204451 | 97 | 301 | 3.0 | 7.0 | 0.00 | 0.00 | 0.00 | 42 | 1011.3 |
| 20260508203451 | 96 | 152 | 2.0 | 5.0 | 0.00 | 0.00 | 0.00 | 43 | 1011.4 |
| 20260508202940 | 95 | 143 | 4.0 | 7.0 | 0.00 | 0.00 | 0.00 | 45 | 1011.3 |
| 20260508201440 | 94 | 138 | 3.0 | 9.0 | 0.00 | 0.00 | 0.00 | 46 | 1011.4 |
| 20260508200442 | 95 | 139 | 2.0 | 6.0 | 0.00 | 0.00 | 0.00 | 45 | 1011.7 |
| 20260508195440 | 94 | 195 | 3.0 | 7.0 | 0.00 | 0.00 | 0.00 | 45 | 1011.8 |
| 20260508194441 | 95 | 109 | 3.0 | 8.0 | 0.00 | 0.00 | 0.00 | 46 | 1011.9 |
| 20260508193440 | 95 | 187 | 2.0 | 10.0 | 0.00 | 0.00 | 0.00 | 45 | 1012.1 |
| 20260508192444 | 95 | 94 | 3.0 | 10.0 | 0.00 | 0.00 | 0.00 | 47 | 1012.3 |
| 20260508191442 | 95 | 134 | 3.0 | 8.0 | 0.00 | 0.00 | 0.00 | 48 | 1012.4 |
| 20260508190441 | 95 | 86 | 5.0 | 12.0 | 0.00 | 0.00 | 0.00 | 47 | 1012.6 |
| 20260508185441 | 94 | 254 | 4.0 | 9.0 | 0.00 | 0.00 | 0.00 | 49 | 1012.9 |
| 20260508184440 | 96 | 309 | 3.0 | 9.0 | 0.00 | 0.00 | 0.00 | 46 | 1013.1 |
| 20260508183442 | 93 | 229 | 1.0 | 5.0 | 0.00 | 0.00 | 0.00 | 48 | 1013.4 |
| 20260508182441 | 92 | 217 | 2.0 | 7.0 | 0.00 | 0.00 | 0.00 | 49 | 1013.3 |
| 20260508181441 | 92 | 187 | 3.0 | 9.0 | 0.00 | 0.00 | 0.00 | 49 | 1013.5 |
| 20260508180442 | 91 | 205 | 2.0 | 4.0 | 0.00 | 0.00 | 0.00 | 51 | 1013.7 |
| 20260508175431 | 91 | 87 | 2.0 | 6.0 | 0.00 | 0.00 | 0.00 | 51 | 1013.8 |
| 20260508174429 | 91 | 28 | 5.0 | 10.0 | 0.00 | 0.00 | 0.00 | 53 | 1013.9 |
| 20260508173431 | 92 | 273 | 4.0 | 10.0 | 0.00 | 0.00 | 0.00 | 50 | 1013.9 |
| 20260508172429 | 91 | 152 | 4.0 | 8.0 | 0.00 | 0.00 | 0.00 | 51 | 1014.1 |
| 20260508171430 | 91 | 240 | 2.0 | 7.0 | 0.00 | 0.00 | 0.00 | 53 | 1014.3 |
| 20260508170430 | 91 | 253 | 4.0 | 11.0 | 0.00 | 0.00 | 0.00 | 51 | 1014.5 |
| 20260508165430 | 92 | 189 | 5.0 | 10.0 | 0.00 | 0.00 | 0.00 | 53 | 1014.6 |
| 20260508164430 | 92 | 338 | 5.0 | 11.0 | 0.00 | 0.00 | 0.00 | 54 | 1014.8 |
| 20260508163431 | 91 | 342 | 3.0 | 8.0 | 0.00 | 0.00 | 0.00 | 56 | 1015.0 |
| 20260508162431 | 88 | 290 | 4.0 | 12.0 | 0.00 | 0.00 | 0.00 | 57 | 1015.2 |
| 20260508161430 | 89 | 319 | 4.0 | 9.0 | 0.00 | 0.00 | 0.00 | 57 | 1015.4 |
| 20260508160431 | 90 | 244 | 5.0 | 17.0 | 0.00 | 0.00 | 0.00 | 57 | 1015.4 |
| 20260508155432 | 89 | 352 | 4.0 | 11.0 | 0.00 | 0.00 | 0.00 | 60 | 1015.5 |
| 20260508154916 | 88 | 351 | 5.0 | 10.0 | 0.00 | 0.00 | 0.00 | 60 | 1015.7 |
| 20260508153434 | 89 | 323 | 4.0 | 11.0 | 0.00 | 0.00 | 0.00 | 60 | 1015.7 |
| 20260508152431 | 89 | 350 | 5.0 | 14.0 | 0.00 | 0.00 | 0.00 | 58 | 1015.9 |
| 20260508151430 | 87 | 338 | 3.0 | 8.0 | 0.00 | 0.00 | 0.00 | 65 | 1015.8 |
| 20260508150432 | 86 | 313 | 3.0 | 7.0 | 0.00 | 0.00 | 0.00 | 67 | 1015.8 |
| 20260508145430 | 85 | 289 | 4.0 | 8.0 | 0.00 | 0.00 | 0.00 | 68 | 1016.0 |
| 20260508144418 | 84 | 308 | 4.0 | 9.0 | 0.00 | 0.00 | 0.00 | 70 | 1015.9 |
| 20260508143914 | 87 | 291 | 4.0 | 9.0 | 0.00 | 0.00 | 0.00 | 68 | 1016.0 |
| 20260508142416 | 87 | 302 | 5.0 | 11.0 | 0.00 | 0.00 | 0.00 | 68 | 1015.9 |
| 20260508141416 | 85 | 327 | 6.0 | 13.0 | 0.00 | 0.00 | 0.00 | 69 | 1016.0 |
| 20260508140418 | 83 | 302 | 5.0 | 11.0 | 0.00 | 0.00 | 0.00 | 75 | 1016.1 |
| 20260508135406 | 84 | 5 | 4.0 | 8.0 | 0.00 | 0.00 | 0.00 | 75 | 1016.0 |
| 20260508134405 | 82 | 313 | 4.0 | 9.0 | 0.00 | 0.00 | 0.00 | 78 | 1016.0 |
| 20260508133406 | 82 | 286 | 4.0 | 10.0 | 0.00 | 0.00 | 0.00 | 78 | 1015.9 |
| 20260508132406 | 82 | 343 | 3.0 | 8.0 | 0.00 | 0.00 | 0.00 | 80 | 1015.8 |
| 20260508131404 | 81 | 304 | 3.0 | 8.0 | 0.00 | 0.00 | 0.00 | 82 | 1015.9 |
| 20260508130408 | 81 | 304 | 4.0 | 10.0 | 0.00 | 0.00 | 0.00 | 84 | 1015.9 |
| 20260508125353 | 80 | 350 | 3.0 | 6.0 | 0.00 | 0.00 | 0.00 | 85 | 1015.8 |
| 20260508124350 | 79 | 355 | 2.0 | 4.0 | 0.00 | 0.00 | 0.00 | 87 | 1015.8 |
| 20260508123350 | 77 | 289 | 2.0 | 5.0 | 0.00 | 0.00 | 0.00 | 88 | 1015.8 |
| 20260508122349 | 76 | 297 | 1.0 | 4.0 | 0.00 | 0.00 | 0.00 | 89 | 1015.7 |
| 20260508121350 | 75 | 294 | 0.0 | 1.0 | 0.00 | 0.00 | 0.00 | 89 | 1015.5 |
| 20260508120828 | 74 | 294 | 0.0 | 0.0 | 0.00 | 0.00 | 0.00 | 90 | 1015.5 |
| 20260508115351 | 72 | 294 | 0.0 | 0.0 | 0.00 | 0.00 | 0.00 | 91 | 1015.2 |
| 20260508114350 | 69 | 294 | 0.0 | 0.0 | 0.00 | 0.00 | 0.00 | 92 | 1015.2 |
| 20260508113350 | 68 | 294 | 0.0 | 0.0 | 0.00 | 0.00 | 0.00 | 93 | 1015.1 |
| 20260508112350 | 67 | 294 | 0.0 | 0.0 | 0.00 | 0.00 | 0.00 | 94 | 1014.8 |
| 20260508111352 | 66 | 294 | 0.0 | 0.0 | 0.00 | 0.00 | 0.00 | 94 | 1014.8 |
| 20260508110350 | 65 | 294 | 0.0 | 0.0 | 0.00 | 0.00 | 0.00 | 93 | 1014.7 |
| 20260508105347 | 65 | 294 | 0.0 | 0.0 | 0.00 | 0.00 | 0.00 | 93 | 1014.5 |
| 20260508104348 | 65 | 294 | 0.0 | 0.0 | 0.00 | 0.00 | 0.00 | 93 | 1014.4 |
| 20260508103351 | 65 | 294 | 0.0 | 0.0 | 0.00 | 0.00 | 0.00 | 93 | 1014.3 |
| 20260508102345 | 65 | 294 | 0.0 | 0.0 | 0.00 | 0.00 | 0.00 | 93 | 1014.2 |
| 20260508101345 | 65 | 294 | 0.0 | 0.0 | 0.00 | 0.00 | 0.00 | 92 | 1014.0 |
| 20260508100346 | 65 | 294 | 0.0 | 0.0 | 0.00 | 0.00 | 0.00 | 93 | 1014.0 |
| 20260508095345 | 65 | 294 | 0.0 | 0.0 | 0.00 | 0.00 | 0.00 | 92 | 1013.8 |
| 20260508094346 | 65 | 294 | 0.0 | 0.0 | 0.00 | 0.00 | 0.00 | 92 | 1013.6 |
| 20260508093345 | 65 | 294 | 0.0 | 0.0 | 0.00 | 0.00 | 0.00 | 92 | 1013.6 |
| 20260508092344 | 66 | 294 | 0.0 | 0.0 | 0.00 | 0.00 | 0.00 | 92 | 1013.6 |
| 20260508092322 | 66 | 294 | 0.0 | 0.0 | 0.00 | 0.00 | 0.00 | 92 | 1013.7 |
| 20260508091312 | 66 | 294 | 0.0 | 0.0 | 0.00 | 0.00 | 0.00 | 92 | 1013.7 |
| 20260508085828 | 66 | 294 | 0.0 | 0.0 | 0.00 | 0.00 | 0.00 | 92 | 1013.6 |
| 20260508084343 | 67 | 294 | 0.0 | 0.0 | 0.00 | 0.00 | 0.00 | 91 | 1013.5 |
| 20260508083340 | 67 | 294 | 0.0 | 0.0 | 0.00 | 0.00 | 0.00 | 91 | 1013.5 |
| 20260508082341 | 67 | 294 | 0.0 | 0.0 | 0.00 | 0.00 | 0.00 | 91 | 1013.4 |
| 20260508081341 | 67 | 294 | 0.0 | 0.0 | 0.00 | 0.00 | 0.00 | 92 | 1013.5 |
| 20260508080819 | 67 | 294 | 0.0 | 0.0 | 0.00 | 0.00 | 0.00 | 91 | 1013.5 |
| 20260508075339 | 67 | 294 | 0.0 | 0.0 | 0.00 | 0.00 | 0.00 | 91 | 1013.5 |
| 20260508074338 | 67 | 294 | 0.0 | 0.0 | 0.00 | 0.00 | 0.00 | 92 | 1013.7 |
| 20260508073339 | 68 | 294 | 0.0 | 0.0 | 0.00 | 0.00 | 0.00 | 91 | 1013.7 |
| 20260508072338 | 68 | 294 | 0.0 | 0.0 | 0.00 | 0.00 | 0.00 | 90 | 1013.8 |
| 20260508071338 | 68 | 294 | 0.0 | 0.0 | 0.00 | 0.00 | 0.00 | 89 | 1013.8 |
| 20260508070337 | 68 | 294 | 0.0 | 0.0 | 0.00 | 0.00 | 0.00 | 90 | 1013.8 |
| 20260508065338 | 68 | 294 | 0.0 | 1.0 | 0.00 | 0.00 | 0.00 | 90 | 1013.9 |
| 20260508064336 | 68 | 294 | 0.0 | 1.0 | 0.00 | 0.00 | 0.00 | 89 | 1013.8 |
| 20260508063336 | 68 | 294 | 0.0 | 0.0 | 0.00 | 0.00 | 0.00 | 89 | 1013.8 |
| 20260508062338 | 69 | 294 | 0.0 | 0.0 | 0.00 | 0.00 | 0.00 | 88 | 1013.9 |
| 20260508061334 | 69 | 294 | 0.0 | 2.0 | 0.00 | 0.00 | 0.00 | 88 | 1014.0 |
| 20260508060334 | 69 | 294 | 0.0 | 1.0 | 0.00 | 0.00 | 0.00 | 87 | 1014.1 |
| 20260508055335 | 70 | 294 | 0.0 | 1.0 | 0.00 | 0.00 | 0.00 | 87 | 1014.1 |
| 20260508054335 | 71 | 294 | 0.0 | 1.0 | 0.00 | 0.00 | 0.00 | 86 | 1014.2 |
| 20260508053334 | 71 | 294 | 0.0 | 2.0 | 0.00 | 0.00 | 0.00 | 84 | 1014.3 |
| 20260508052336 | 71 | 294 | 0.0 | 1.0 | 0.00 | 0.00 | 0.00 | 84 | 1014.3 |
| 20260508051326 | 72 | 294 | 0.0 | 1.0 | 0.00 | 0.00 | 0.00 | 83 | 1014.4 |
| 20260508050803 | 73 | 294 | 0.0 | 3.0 | 0.00 | 0.00 | 0.00 | 81 | 1014.3 |
| 20260508045323 | 74 | 294 | 0.0 | 3.0 | 0.00 | 0.00 | 0.00 | 79 | 1014.4 |
| 20260508044807 | 75 | 294 | 2.0 | 3.0 | 0.00 | 0.00 | 0.00 | 79 | 1014.3 |
| 20260508043325 | 75 | 291 | 3.0 | 7.0 | 0.00 | 0.00 | 0.00 | 78 | 1014.4 |
| 20260508042322 | 75 | 305 | 2.0 | 6.0 | 0.00 | 0.00 | 0.00 | 78 | 1014.4 |
| 20260508041322 | 74 | 306 | 2.0 | 4.0 | 0.00 | 0.00 | 0.00 | 77 | 1014.4 |
| 20260508040323 | 74 | 320 | 1.0 | 3.0 | 0.00 | 0.00 | 0.00 | 77 | 1014.4 |
| 20260508035805 | 74 | 321 | 0.0 | 1.0 | 0.00 | 0.00 | 0.00 | 75 | 1014.4 |